Simultaneous Nadir Overpasses (SNOs) Predictions

Prediction of SNOs between LANDSAT-8 and METOP-A Satellite Orbit:

Table of predicted SNOs for the next 14.0 days since TLE Epoch: 6/30/2017
Index Date (LANDSAT-8) Time (LANDSAT-8) Lat,Lon (LANDSAT-8) SZA (LANDSAT-8 ) Date (METOP-A) Time (METOP-A) Lat,Lon (METOP-A) SZA (METOP-A ) Distance(km) Time Diff (sec)
1 07/01/2017 22:33:26 81.22,-116.86 60.39 07/01/2017 22:33:10 81.22,-116.89 60.38 0.46 16
2 07/01/2017 23:22:52 -81.23, 51.05 119.58 07/01/2017 23:23:49 -81.23, 51.05 119.55 0.09 57
3 07/04/2017 18:07:42 81.21, -50.51 60.59 07/04/2017 18:07:31 81.22, -50.51 60.59 0.50 11
4 07/04/2017 18:57:08 -81.23, 117.43 119.36 07/04/2017 18:58:10 -81.23, 117.47 119.33 0.79 62
5 07/07/2017 13:41:57 81.23, 16.20 60.90 07/07/2017 13:41:51 81.23, 16.24 60.90 0.76 6
6 07/07/2017 14:31:23 -81.25,-175.83 119.05 07/07/2017 14:32:30 -81.24,-175.74 119.01 1.58 67
7 07/10/2017 08:27:00 -80.88, -90.19 119.57 07/10/2017 08:25:46 -81.01, -90.60 119.53 16.74 74
8 07/10/2017 09:16:12 81.22, 82.51 61.21 07/10/2017 09:16:11 81.22, 82.59 61.22 1.49 1
9 07/10/2017 10:05:38 -81.24,-109.49 118.74 07/10/2017 10:06:50 -81.24,-109.35 118.69 2.48 72
10 07/13/2017 04:01:02 -81.21, -18.86 118.45 07/13/2017 03:59:53 -81.21, -18.98 118.50 2.23 69




NCC Satellite Simultaneous Nadir Overpasses (SNOs) Prediction Service
